• In Hungary
  • List of Countries
  • For 7 days
  • Water Temperature
  • Satellite Maps
  • Weather Map
  • News
  • Weather Widgets
  • user-avatar
    Login

    Hourly Weather Kecskemet

    Today, 18 July, Wednesday

    Time Temperature Precipitation Wind Pressure Humidity
    00:00 +21°C° 0 mm 6 mps 745 mmHg 68%
    01:00 +21°C° 0 mm 5 mps 745 mmHg 68%
    02:00 +21°C° 0 mm 5 mps 745 mmHg 69%
    03:00 +20°C° 0 mm 5 mps 745 mmHg 69%
    04:00 +20°C° 0 mm 6 mps 745 mmHg 70%
    05:00 +21°C° 0.1 mm 7 mps 745 mmHg 69%
    06:00 +22°C° 0.1 mm 7 mps 745 mmHg 67%
    07:00 +23°C° 0 mm 8 mps 745 mmHg 65%
    08:00 +23°C° 0.1 mm 8 mps 745 mmHg 64%
    09:00 +24°C° 0.1 mm 9 mps 745 mmHg 62%
    10:00 +26°C° 0.1 mm 9 mps 745 mmHg 61%
    11:00 +26°C° 0.1 mm 9 mps 745 mmHg 59%
    12:00 +26°C° 0.1 mm 10 mps 745 mmHg 58%
    13:00 +27°C° 0.1 mm 10 mps 745 mmHg 56%
    14:00 +26°C° 0.1 mm 10 mps 745 mmHg 59%
    15:00 +24°C° 0.1 mm 10 mps 745 mmHg 61%
    16:00 +23°C° 0.1 mm 10 mps 745 mmHg 64%
    17:00 +23°C° 0 mm 9 mps 745 mmHg 66%
    18:00 +22°C° 0 mm 9 mps 745 mmHg 68%
    19:00 +22°C° 0 mm 8 mps 746 mmHg 71%
    20:00 +21°C° 0.1 mm 8 mps 746 mmHg 73%
    21:00 +21°C° 0.1 mm 7 mps 746 mmHg 75%
    22:00 +21°C° 0.1 mm 7 mps 746 mmHg 77%
    23:00 +21°C° 0.2 mm 6 mps 746 mmHg 79%

    Tomorrow, 19 July, Thursday

    Time Temperature Precipitation Wind Pressure Humidity
    00:00 +20°C° 0.2 mm 6 mps 746 mmHg 81%
    01:00 +20°C° 0.2 mm 6 mps 746 mmHg 82%
    02:00 +20°C° 0.3 mm 6 mps 746 mmHg 84%
    03:00 +20°C° 0.3 mm 6 mps 746 mmHg 86%
    04:00 +19°C° 0.3 mm 6 mps 746 mmHg 87%
    05:00 +20°C° 0.1 mm 6 mps 746 mmHg 85%
    06:00 +21°C° 0.1 mm 6 mps 747 mmHg 82%
    07:00 +21°C° 0.1 mm 6 mps 747 mmHg 80%
    08:00 +22°C° 0.2 mm 6 mps 747 mmHg 76%
    09:00 +23°C° 0.2 mm 6 mps 747 mmHg 72%
    10:00 +25°C° 0.2 mm 5 mps 748 mmHg 67%
    11:00 +27°C° 0.3 mm 6 mps 748 mmHg 62%
    12:00 +28°C° 0.3 mm 6 mps 748 mmHg 57%
    13:00 +30°C° 0.3 mm 6 mps 748 mmHg 52%
    14:00 +30°C° 0.2 mm 6 mps 747 mmHg 52%
    15:00 +30°C° 0.2 mm 6 mps 747 mmHg 51%
    16:00 +30°C° 0.2 mm 6 mps 747 mmHg 51%
    17:00 +28°C° 0.1 mm 6 mps 747 mmHg 55%
    18:00 +27°C° 0.1 mm 5 mps 748 mmHg 59%
    19:00 +25°C° 0.1 mm 5 mps 748 mmHg 63%
    20:00 +25°C° 0 mm 4 mps 748 mmHg 66%
    21:00 +23°C° 0 mm 4 mps 748 mmHg 68%
    22:00 +22°C° 0 mm 4 mps 749 mmHg 71%
    23:00 +21°C° 0 mm 4 mps 749 mmHg 74%

    Day after tomorrow, 20 July, Friday

    Time Temperature Precipitation Wind Pressure Humidity
    00:00 +20°C° 0 mm 3 mps 749 mmHg 76%
    01:00 +20°C° 0 mm 3 mps 749 mmHg 79%
    02:00 +19°C° 0 mm 3 mps 749 mmHg 81%
    03:00 +19°C° 0 mm 3 mps 749 mmHg 83%
    04:00 +18°C° 0 mm 3 mps 749 mmHg 86%
    05:00 +20°C° 0 mm 3 mps 749 mmHg 81%
    06:00 +21°C° 0 mm 3 mps 749 mmHg 76%
    07:00 +22°C° 0 mm 4 mps 749 mmHg 72%
    08:00 +25°C° 0 mm 4 mps 749 mmHg 66%
    09:00 +26°C° 0 mm 4 mps 749 mmHg 60%
    10:00 +28°C° 0 mm 4 mps 749 mmHg 55%
    11:00 +29°C° 0.2 mm 4 mps 749 mmHg 52%
    12:00 +30°C° 0.2 mm 4 mps 749 mmHg 50%
    13:00 +30°C° 0.2 mm 5 mps 749 mmHg 48%
    14:00 +30°C° 0.2 mm 4 mps 748 mmHg 48%
    15:00 +30°C° 0.2 mm 4 mps 748 mmHg 49%
    16:00 +30°C° 0.2 mm 4 mps 748 mmHg 49%
    17:00 +29°C° 0 mm 3 mps 748 mmHg 53%
    18:00 +28°C° 0 mm 2 mps 748 mmHg 57%
    19:00 +27°C° 0 mm 2 mps 748 mmHg 61%
    20:00 +26°C° 0 mm 1 mps 748 mmHg 65%
    21:00 +25°C° 0 mm 1 mps 748 mmHg 68%
    22:00 +23°C° 0 mm 1 mps 749 mmHg 71%
    23:00 +23°C° 0 mm 1 mps 748 mmHg 73%

    21 July, Saturday

    Time Temperature Precipitation Wind Pressure Humidity
    00:00 +22°C° 0 mm 1 mps 748 mmHg 75%
    01:00 +22°C° 0 mm 1 mps 748 mmHg 78%
    02:00 +21°C° 0 mm 1 mps 748 mmHg 79%
    03:00 +21°C° 0 mm 1 mps 748 mmHg 81%
    04:00 +21°C° 0 mm 1 mps 748 mmHg 82%
    05:00 +22°C° 0 mm 1 mps 748 mmHg 77%
    06:00 +24°C° 0 mm 1 mps 748 mmHg 71%
    07:00 +25°C° 0 mm 2 mps 748 mmHg 66%
    08:00 +27°C° 0 mm 2 mps 748 mmHg 60%
    09:00 +28°C° 0 mm 2 mps 748 mmHg 54%
    10:00 +30°C° 0 mm 2 mps 748 mmHg 49%
    11:00 +31°C° 0 mm 2 mps 748 mmHg 45%
    12:00 +32°C° 0 mm 2 mps 747 mmHg 41%
    13:00 +34°C° 0 mm 2 mps 747 mmHg 38%
    14:00 +34°C° 0 mm 2 mps 747 mmHg 38%
    15:00 +34°C° 0 mm 2 mps 746 mmHg 38%
    16:00 +34°C° 0 mm 2 mps 746 mmHg 38%
    17:00 +32°C° 0.1 mm 2 mps 745 mmHg 42%
    18:00 +30°C° 0.1 mm 2 mps 745 mmHg 45%
    19:00 +29°C° 0.1 mm 2 mps 745 mmHg 49%
    20:00 +28°C° 0.6 mm 3 mps 745 mmHg 55%
    21:00 +26°C° 0.6 mm 4 mps 745 mmHg 60%
    22:00 +25°C° 0.6 mm 4 mps 745 mmHg 66%
    23:00 +24°C° 1.4 mm 3 mps 745 mmHg 71%

    22 July, Sunday

    Time Temperature Precipitation Wind Pressure Humidity
    00:00 +22°C° 1.4 mm 3 mps 745 mmHg 77%
    01:00 +23°C° 1.4 mm 2 mps 745 mmHg 82%
    02:00 +21°C° 0.1 mm 2 mps 745 mmHg 85%
    03:00 +20°C° 0.1 mm 2 mps 745 mmHg 87%
    04:00 +20°C° 0.1 mm 3 mps 745 mmHg 90%
    05:00 +20°C° 0 mm 3 mps 745 mmHg 87%
    06:00 +21°C° 0 mm 4 mps 745 mmHg 84%
    07:00 +22°C° 0 mm 4 mps 745 mmHg 81%
    08:00 +22°C° 0 mm 4 mps 745 mmHg 78%
    09:00 +23°C° 0 mm 5 mps 745 mmHg 75%
    10:00 +25°C° 0 mm 5 mps 745 mmHg 71%
    11:00 +25°C° 0.1 mm 5 mps 744 mmHg 68%
    12:00 +26°C° 0.1 mm 5 mps 744 mmHg 65%
    13:00 +27°C° 0.1 mm 6 mps 744 mmHg 62%
    14:00 +27°C° 0.8 mm 5 mps 744 mmHg 63%
    15:00 +27°C° 0.8 mm 5 mps 744 mmHg 63%
    16:00 +27°C° 0.8 mm 5 mps 743 mmHg 64%
    17:00 +26°C° 0.5 mm 5 mps 743 mmHg 69%
    18:00 +25°C° 0.5 mm 4 mps 743 mmHg 74%
    19:00 +24°C° 0.5 mm 3 mps 743 mmHg 78%
    20:00 +22°C° 0.2 mm 3 mps 743 mmHg 81%
    21:00 +21°C° 0.2 mm 3 mps 744 mmHg 85%
    22:00 +20°C° 0.2 mm 4 mps 744 mmHg 88%
    23:00 +20°C° 0 mm 4 mps 744 mmHg 89%

    23 July, Monday

    Time Temperature Precipitation Wind Pressure Humidity
    00:00 +19°C° 0 mm 4 mps 744 mmHg 91%
    01:00 +19°C° 0 mm 3 mps 744 mmHg 92%
    02:00 +19°C° 0 mm 3 mps 744 mmHg 93%
    03:00 +19°C° 0 mm 3 mps 744 mmHg 94%
    04:00 +18°C° 0 mm 3 mps 744 mmHg 94%
    05:00 +19°C° 0 mm 3 mps 744 mmHg 91%
    06:00 +20°C° 0 mm 3 mps 745 mmHg 88%
    07:00 +22°C° 0 mm 3 mps 745 mmHg 84%
    08:00 +23°C° 0.1 mm 4 mps 745 mmHg 77%
    09:00 +25°C° 0.1 mm 4 mps 745 mmHg 71%
    10:00 +27°C° 0.1 mm 5 mps 745 mmHg 64%
    11:00 +28°C° 0.7 mm 5 mps 745 mmHg 60%
    12:00 +29°C° 0.7 mm 5 mps 745 mmHg 57%
    13:00 +30°C° 0.7 mm 5 mps 745 mmHg 53%
    14:00 +30°C° 0.9 mm 5 mps 745 mmHg 53%
    15:00 +30°C° 0.9 mm 5 mps 745 mmHg 52%
    16:00 +30°C° 0.9 mm 5 mps 745 mmHg 52%
    17:00 +29°C° 0.3 mm 5 mps 746 mmHg 56%
    18:00 +28°C° 0.3 mm 4 mps 746 mmHg 60%
    19:00 +27°C° 0.3 mm 4 mps 746 mmHg 64%
    20:00 +25°C° 0.5 mm 4 mps 746 mmHg 67%
    21:00 +23°C° 0.5 mm 4 mps 747 mmHg 71%
    22:00 +22°C° 0.5 mm 5 mps 747 mmHg 75%
    23:00 +22°C° 0 mm 5 mps 747 mmHg 76%
    Show more